Tracking 26321 objects as of 27-Nov-2022
HD Live streaming from Space Station
objects crossing your sky now

STARLINK-4415

Track STARLINK-4415 now!
10-day predictions
STARLINK-4415 is classified as:


NORAD ID: 53465
Int'l Code: 2022-099A
Perigee: 569.3 km
Apogee: 570.9 km
Inclination: 97.7 °
Period: 95.9 minutes
Semi major axis: 6941 km
RCS: Unknown
Launch date: August 12, 2022
Source: United States (US)
Launch site: AIR FORCE WESTERN TEST RANGE (AFWTR)
aabbcc
Your satellite tracking list
Your tracking list is empty




NASA's NSSDC Master Catalog

Two Line Element Set (TLE):
1 53465U 22099A   22330.78479215  .00002343  00000-0  18691-3 0  9998
2 53465  97.6536  89.7631 0001125 356.5020   3.6197 15.01269341 16112
Source of the keplerian elements: AFSPC